This is the latest recevied weather packets stored in our database for station/object KM6RDV. If no packets are shown the sender has not sent any weather packets the latest 10 day(s).
| Time | Temp. | Humidity | Pressure | Rain* | Wind** | Luminosity | Snow |
|---|---|---|---|---|---|---|---|
| 1777938038 | 17.22° C | 53% | 1018 hPa | 0 mm | - | 286 W/m² | - |
| 1777935017 | 17.78° C | 53% | 1017.9 hPa | 0 mm | - | 375 W/m² | - |
| 1777933216 | 18.33° C | 54% | 1018 hPa | 0 mm | - | 493 W/m² | - |
| 1777932024 | 18.33° C | 54% | 1018.2 hPa | 0 mm | - | 564 W/m² | - |
| 1777929616 | 17.78° C | 56% | 1018.1 hPa | 0 mm | - | 831 W/m² | - |
| 1777927841 | 17.78° C | 58% | 1018.3 hPa | 0 mm | - | 373 W/m² | - |
| 1777924847 | 17.78° C | 59% | 1018.3 hPa | 0 mm | - | 514 W/m² | - |
| 1777924224 | 17.22° C | 60% | 1018.3 hPa | 0 mm | - | 541 W/m² | - |
| 1777918844 | 17.22° C | 61% | 1018.4 hPa | 0 mm | - | 648 W/m² | - |
| 1777915818 | 16.11° C | 65% | 1018.1 hPa | 0 mm | - | 200 W/m² | - |
| 1777914620 | 16.11° C | 65% | 1017.9 hPa | 0 mm | - | 187 W/m² | - |
| 1777914018 | 16.11° C | 62% | 1017.8 hPa | 0 mm | - | 135 W/m² | - |
| 1777909819 | 16.11° C | 69% | 1017.9 hPa | 0 mm | - | 461 W/m² | - |
| 1777909226 | 15.56° C | 71% | 1017.9 hPa | 0 mm | - | 407 W/m² | - |
| 1777908637 | 15.56° C | 72% | 1017.8 hPa | 0 mm | - | 206 W/m² | - |
| 1777904426 | 12.22° C | 88% | 1017.8 hPa | 0 mm | - | - | - |
| 1777900817 | 12.22° C | 87% | 1017.5 hPa | 0 mm | - | - | - |
| 1777898448 | 12.78° C | 84% | 1017.4 hPa | 0 mm | - | 0 W/m² | - |
| 1777896020 | 12.78° C | 85% | 1017.3 hPa | 0 mm | - | 0 W/m² | - |
| 1777894818 | 12.78° C | 85% | 1017.2 hPa | 0 mm | - | 0 W/m² | - |
| 1777890045 | 12.78° C | 82% | 1017.3 hPa | 0 mm | - | 0 W/m² | - |
| 1777888221 | 12.78° C | 84% | 1017.1 hPa | 0 mm | - | 0 W/m² | - |
| 1777880420 | 12.78° C | 79% | 1017.7 hPa | 0 mm | - | 0 W/m² | - |
| 1777879818 | 12.78° C | 79% | 1017.7 hPa | 0 mm | - | 0 W/m² | - |
| 1777877417 | 12.78° C | 79% | 1017.8 hPa | 0 mm | - | 0 W/m² | - |
* Rain latest hour (hover to see other rain measurements)
** Current wind speed in m/s (hover to see current wind gust speed)